Погода в Коваксе

Россия / Нижегородская область     55°31′07″N   43°30′09″E
темп.,
°C
ветер,
м/с
пор.,
м/с
влажн.,
%
обл.,
%
осадки,
мм/ч
давл.,
гПа
погр.,
м
23 сентября, чт
чт2300:00+7в359327 0.0 101686
03:00+6в389843 0.0 1016188
06:00+7в5129399 0.0 1017486
09:00+9вюв5119295 0.6 1016498
12:00+12юв5976100 0.1 1015710
15:00+11вюв4977100 0.1 1015594
18:00+10юв41289100 0.5 1014557
21:00+10юв51081100 0.9 1013536
24 сентября, пт
пт2400:00+8юв51095100 3.3 1012475
03:00+9ююв51096100 5.5 1011574
06:00+9ююв4896100 0.1 1011376
09:00+10ю4785100 0.2 1010558
12:00+13ю4662100 0.1 10091446
15:00+13ю3561100 0.2 10091234
18:00+11юв356591 0.0 1008126
21:00+7ююв35938 0.1 100984
25 сентября, сб
сб2500:00+8юв248798 0.0 100882
03:00+8вюв2585100 0.0 1008133
06:00+8юв2487100 0.0 1008126
09:00+10юв247672 0.0 1008282
12:00+14ююз235493 0.3 10081149
15:00+14ю224699 0.3 10081188
18:00+12ю2257100 0.0 100937
21:00+11ю2263100 0.0 100957
26 сентября, вс
вс2600:00+10ююз2271100 0.0 100926
03:00+10ю1176100 0.0 100911
06:00+9ююв2283100 0.0 100925
09:00+11ююз2371100 0.1 1009332
12:00+13юв2363100 0.6 1009605
15:00+13вюв336460 1.4 1009901
18:00+9св338471 0.4 101152
21:00+10св3689100 0.9 1012226
27 сентября, пн
пн2700:00+8св3793100 0.2 1013197
03:00+7ссв3996100 0.2 1015248
06:00+8с4994100 0.0 1016433
09:00+8с4991100 0.0 1017618
12:00+8ссв4892100 0.2 1019600
15:00+8св5888100 0.4 1021684
18:00+7св5991100 0.5 1023748
21:00+6всв5890100 0.6 1026800